Location: Boullarre
(49.1305°N, 3.0047°E)
Time: 20:58:55
(UTC+00:00)

ISS - Pass Details

Date: 24 September 2024
Orbit: 411 x 423 km, 51.6° (Epoch: 14 October)

Event Time Altitude Azimuth Distance (km) Brightness Sun altitude
Rises 20:15:33 0° 289° (WNW) 2,373 1.4 -25.0°
Reaches altitude 10° 20:17:44 10° 281° (W) 1,509 0.0 -25.4°
Enters shadow 20:19:27 24° 263° (W) 912 -1.6 -25.6°
